Flag for U.S.A. Weather past 2 weeks in Fort Lauderdale, Florida, U.S.A.

Now
83 °F

Partly sunny.


Feels Like: 85 °F
Forecast: 77 / 84 °F
Wind: 17 mph from East

Location: Fort Lauderdale / Hollywood International Airport

Current Time: May 28, 2015 at 12:43:23 PM

Latest Report: May 28, 2015 at 11:53 AM


Visibility: 10 mi

Pressure: 30.10 "Hg

Humidity: 59%

Dew point: 67 °F

Location of Fort LauderdaleLocation

Historic Weather in Fort Lauderdale — Graph

°F

Fort Lauderdale temperature yesterday

Maximum temperature yesterday: 86 °F (at 1:53 PM)
Minimum temperature yesterday: 76 °F (at 8:53 PM)
Average temperature yesterday: 81 °F

Past Weeks' High & Low Weather Summary

 TemperatureHumidityPressure
High90 °F (May 21, 12:53 PM)94% (May 20, 4:53 AM)30.20 "Hg (May 20, 4:53 AM)
Low74 °F (May 20, 4:53 AM)49% (May 20, 3:53 PM)29.93 "Hg (May 20, 6:53 PM)
Average81 °F72%30.10 "Hg
* Reported May 13 10:53 AM — May 28 10:53 AM, Fort Lauderdale, Weather by CustomWeather, © 2015

Note: Actual official high and low records may vary slightly from our data, if they occured in-between our weather recording intervals... More about our weather records

Advertising

Fort Lauderdale weather history for previous 24 hours

 ConditionsComfort  
Time TempWeatherWind HumidityBarometerVisibility
10:53 AM
Thu, May 28
82 °FBroken clouds.16 mph63%30.10 "Hg10 mi
9:53 AM81 °FBroken clouds.17 mph62%30.09 "Hg10 mi
8:53 AM81 °FScattered clouds.14 mph58%30.08 "Hg10 mi
7:53 AM79 °FScattered clouds.13 mph62%30.07 "Hg10 mi
6:53 AM77 °FPassing clouds.14 mph66%30.06 "Hg10 mi
5:53 AM77 °FPassing clouds.13 mph58%30.05 "Hg10 mi
4:53 AM77 °FPassing clouds.16 mph62%30.04 "Hg10 mi
3:53 AM77 °FPassing clouds.17 mph64%30.05 "Hg10 mi
2:53 AM77 °FPassing clouds.13 mph66%30.05 "Hg10 mi
1:53 AM78 °FPassing clouds.12 mph64%30.08 "Hg10 mi
12:53 AM78 °FPassing clouds.15 mph60%30.10 "Hg10 mi
11:53 PM
Wed, May 27
78 °FPassing clouds.16 mph66%30.10 "Hg10 mi
10:53 PM78 °FPartly cloudy.16 mph71%30.10 "Hg10 mi
9:53 PM76 °FPassing clouds.7 mph88%30.10 "Hg10 mi
8:53 PM76 °FMostly cloudy.12 mph85%30.09 "Hg10 mi
7:53 PM78 °FLight rain. Partly sunny.16 mph82%30.08 "Hg7 mi
6:53 PM82 °FScattered clouds.13 mph60%30.08 "Hg10 mi
5:53 PM83 °FScattered clouds.14 mph59%30.08 "Hg10 mi
4:53 PM84 °FPassing clouds.13 mph59%30.08 "Hg10 mi
3:53 PM85 °FPassing clouds.14 mph55%30.09 "Hg10 mi
2:53 PM85 °FPassing clouds.14 mph57%30.11 "Hg10 mi
1:53 PM86 °FPassing clouds.17 mph55%30.12 "Hg10 mi
12:53 PM85 °FScattered clouds.16 mph59%30.14 "Hg10 mi
Weather by CustomWeather, © 2015

See weather overviewHow to use our weather pages